| time (UTC) | temp F | wind direction | speed MPH | gust MPH | rain 1hr in | rain 24hr in | rain mn in | humidity % | barometer mb |
| 20260504173331 | 56 | 26 | 1.0 | 2.0 | 0.00 | 0.29 | 0.00 | 41 | 1013.0 |
| 20260504171832 | 56 | 31 | 1.0 | 2.0 | 0.00 | 0.30 | 0.00 | 41 | 1012.7 |
| 20260504170331 | 56 | 40 | 1.0 | 3.0 | 0.00 | 0.32 | 0.00 | 42 | 1012.2 |
| 20260504160332 | 58 | 14 | 6.0 | 11.0 | 0.00 | 0.38 | 0.00 | 42 | 1010.7 |
| 20260504150331 | 60 | 18 | 3.0 | 8.0 | 0.00 | 0.44 | 0.00 | 45 | 1009.4 |
| 20260504140331 | 61 | 46 | 1.0 | 4.0 | 0.00 | 0.44 | 0.44 | 44 | 1008.3 |
| 20260504130332 | 64 | 37 | 2.0 | 3.0 | 0.00 | 0.44 | 0.44 | 41 | 1006.7 |
| 20260504081830 | 73 | 250 | 17.0 | 20.0 | 0.00 | 0.44 | 0.44 | 35 | 997.4 |
| 20260504080331 | 74 | 258 | 14.0 | 18.0 | 0.00 | 0.44 | 0.44 | 35 | 997.3 |
| 20260504070330 | 76 | 261 | 19.0 | 28.0 | 0.00 | 0.44 | 0.44 | 33 | 996.4 |
| 20260504050330 | 81 | 272 | 16.0 | 27.0 | 0.00 | 0.44 | 0.44 | 41 | 996.1 |
| 20260504044830 | 82 | 242 | 15.0 | 22.0 | 0.00 | 0.44 | 0.44 | 40 | 996.2 |
| 20260504043331 | 83 | 265 | 7.0 | 12.0 | 0.00 | 0.44 | 0.44 | 40 | 996.2 |
| 20260504041830 | 83 | 262 | 13.0 | 24.0 | 0.00 | 0.44 | 0.44 | 39 | 996.2 |
| 20260504040330 | 83 | 244 | 17.0 | 22.0 | 0.00 | 0.44 | 0.44 | 38 | 996.2 |
| 20260504034831 | 83 | 254 | 16.0 | 21.0 | 0.00 | 0.44 | 0.44 | 38 | 996.1 |
| 20260504033330 | 82 | 257 | 13.0 | 18.0 | 0.00 | 0.44 | 0.44 | 40 | 996.2 |
| 20260504030330 | 85 | 258 | 12.0 | 19.0 | 0.00 | 0.44 | 0.44 | 40 | 996.4 |
| 20260504024830 | 85 | 248 | 12.0 | 22.0 | 0.00 | 0.44 | 0.44 | 39 | 996.7 |
| 20260504023331 | 84 | 266 | 5.0 | 12.0 | 0.00 | 0.44 | 0.44 | 42 | 996.9 |
| 20260504021830 | 84 | 249 | 9.0 | 19.0 | 0.00 | 0.44 | 0.44 | 43 | 997.0 |
| 20260504020329 | 83 | 267 | 11.0 | 17.0 | 0.00 | 0.44 | 0.44 | 44 | 997.3 |
| 20260504014831 | 83 | 276 | 8.0 | 11.0 | 0.00 | 0.44 | 0.44 | 46 | 997.3 |
| 20260504013331 | 83 | 242 | 10.0 | 17.0 | 0.00 | 0.44 | 0.44 | 46 | 997.4 |
| 20260504010330 | 81 | 263 | 11.0 | 16.0 | 0.00 | 0.44 | 0.44 | 50 | 997.3 |
| 20260504004830 | 82 | 251 | 12.0 | 20.0 | 0.00 | 0.44 | 0.44 | 50 | 997.2 |
| 20260504001830 | 81 | 272 | 12.0 | 29.0 | 0.00 | 0.44 | 0.44 | 53 | 996.9 |
| 20260504000330 | 81 | 266 | 10.0 | 17.0 | 0.00 | 0.44 | 0.44 | 54 | 996.9 |
| 20260503234829 | 78 | 244 | 17.0 | 30.0 | 0.00 | 0.44 | 0.44 | 57 | 996.6 |
| 20260503230330 | 74 | 235 | 16.0 | 21.0 | 0.00 | 0.44 | 0.44 | 62 | 996.5 |
| 20260503224829 | 73 | 256 | 17.0 | 23.0 | 0.00 | 0.44 | 0.44 | 65 | 996.8 |
| 20260503223331 | 72 | 254 | 18.0 | 23.0 | 0.00 | 0.44 | 0.44 | 67 | 996.4 |
| 20260503221830 | 72 | 219 | 15.0 | 24.0 | 0.00 | 0.44 | 0.44 | 69 | 996.2 |
| 20260503214830 | 74 | 275 | 22.0 | 31.0 | 0.00 | 0.44 | 0.44 | 70 | 996.5 |
| 20260503211829 | 71 | 247 | 25.0 | 31.0 | 0.02 | 0.44 | 0.44 | 83 | 996.9 |
| 20260503210331 | 69 | 252 | 19.0 | 26.0 | 0.04 | 0.44 | 0.44 | 86 | 997.4 |
| 20260503204830 | 69 | 238 | 16.0 | 23.0 | 0.09 | 0.44 | 0.44 | 86 | 997.3 |
| 20260503203331 | 68 | 236 | 14.0 | 21.0 | 0.10 | 0.43 | 0.43 | 86 | 997.8 |
| 20260503201830 | 67 | 219 | 7.0 | 13.0 | 0.13 | 0.43 | 0.43 | 85 | 998.0 |
| 20260503200331 | 67 | 176 | 6.0 | 11.0 | 0.10 | 0.40 | 0.40 | 84 | 998.5 |
| 20260503194830 | 67 | 226 | 11.0 | 16.0 | 0.06 | 0.35 | 0.35 | 84 | 997.7 |
| 20260503191829 | 67 | 235 | 19.0 | 26.0 | 0.03 | 0.30 | 0.30 | 84 | 998.1 |
| 20260503190331 | 66 | 223 | 14.0 | 17.0 | 0.06 | 0.30 | 0.30 | 83 | 997.9 |
| 20260503183331 | 66 | 232 | 11.0 | 19.0 | 0.13 | 0.28 | 0.28 | 81 | 999.0 |
| 20260503180331 | 65 | 239 | 7.0 | 13.0 | 0.13 | 0.24 | 0.24 | 79 | 1000.1 |